• In Czech Republic
  • List of Countries
  • For 7 days
  • Water Temperature
  • Satellite Maps
  • Weather Map
  • Weather Widgets
  • user-avatar
    Login

    Hourly Weather Algiers

    Today, 23 July, Monday

    Time Temperature Precipitation Wind Pressure Humidity
    00:00 +27°C° 0 mm 3 mps 748 mmHg 78%
    01:00 +27°C° 0 mm 3 mps 748 mmHg 79%
    02:00 +27°C° 0 mm 3 mps 748 mmHg 79%
    03:00 +27°C° 0 mm 2 mps 748 mmHg 79%
    04:00 +27°C° 0 mm 3 mps 749 mmHg 79%
    05:00 +27°C° 0 mm 3 mps 749 mmHg 78%
    06:00 +27°C° 0 mm 3 mps 749 mmHg 77%
    07:00 +29°C° 0 mm 3 mps 749 mmHg 65%
    08:00 +30°C° 0 mm 4 mps 749 mmHg 52%
    09:00 +33°C° 0 mm 4 mps 749 mmHg 40%
    10:00 +35°C° 0 mm 4 mps 749 mmHg 36%
    11:00 +36°C° 0 mm 5 mps 749 mmHg 33%
    12:00 +37°C° 0 mm 5 mps 749 mmHg 29%
    13:00 +38°C° 0 mm 6 mps 749 mmHg 29%
    14:00 +39°C° 0 mm 6 mps 748 mmHg 29%
    15:00 +39°C° 0 mm 6 mps 748 mmHg 28%
    16:00 +38°C° 0 mm 6 mps 748 mmHg 30%
    17:00 +36°C° 0 mm 5 mps 748 mmHg 32%
    18:00 +35°C° 0 mm 5 mps 748 mmHg 35%
    19:00 +34°C° 0 mm 5 mps 748 mmHg 38%
    20:00 +32°C° 0 mm 4 mps 748 mmHg 42%
    21:00 +30°C° 0 mm 4 mps 748 mmHg 46%
    22:00 +30°C° 0 mm 4 mps 748 mmHg 45%
    23:00 +30°C° 0 mm 3 mps 748 mmHg 44%

    Tomorrow, 24 July, Tuesday

    Time Temperature Precipitation Wind Pressure Humidity
    00:00 +29°C° 0 mm 3 mps 748 mmHg 43%
    01:00 +29°C° 0 mm 3 mps 747 mmHg 41%
    02:00 +29°C° 0 mm 3 mps 747 mmHg 40%
    03:00 +29°C° 0 mm 3 mps 747 mmHg 38%
    04:00 +29°C° 0 mm 2 mps 747 mmHg 36%
    05:00 +30°C° 0 mm 2 mps 747 mmHg 34%
    06:00 +30°C° 0 mm 2 mps 747 mmHg 32%
    07:00 +32°C° 0 mm 2 mps 747 mmHg 28%
    08:00 +35°C° 0 mm 2 mps 747 mmHg 25%
    09:00 +37°C° 0 mm 2 mps 748 mmHg 21%
    10:00 +38°C° 0 mm 3 mps 747 mmHg 22%
    11:00 +38°C° 0 mm 3 mps 747 mmHg 23%
    12:00 +40°C° 0 mm 4 mps 747 mmHg 24%
    13:00 +38°C° 0 mm 3 mps 747 mmHg 27%
    14:00 +38°C° 0 mm 3 mps 746 mmHg 29%
    15:00 +38°C° 0 mm 3 mps 746 mmHg 32%
    16:00 +37°C° 0 mm 3 mps 746 mmHg 35%
    17:00 +36°C° 0 mm 2 mps 746 mmHg 38%
    18:00 +34°C° 0 mm 2 mps 746 mmHg 42%
    19:00 +32°C° 0 mm 1 mps 746 mmHg 46%
    20:00 +31°C° 0 mm 1 mps 747 mmHg 50%
    21:00 +30°C° 0 mm 1 mps 747 mmHg 53%
    22:00 +29°C° 0 mm 1 mps 747 mmHg 53%
    23:00 +29°C° 0 mm 1 mps 747 mmHg 52%

    Day after tomorrow, 25 July, Wednesday

    Time Temperature Precipitation Wind Pressure Humidity
    00:00 +27°C° 0 mm 0 mps 747 mmHg 52%
    01:00 +27°C° 0 mm 0 mps 747 mmHg 50%
    02:00 +27°C° 0 mm 0 mps 746 mmHg 48%
    03:00 +26°C° 0 mm 0 mps 746 mmHg 46%
    04:00 +29°C° 0 mm 1 mps 746 mmHg 45%
    05:00 +29°C° 0 mm 1 mps 747 mmHg 45%
    06:00 +30°C° 0 mm 1 mps 747 mmHg 44%
    07:00 +31°C° 0 mm 1 mps 747 mmHg 40%
    08:00 +32°C° 0 mm 1 mps 747 mmHg 36%
    09:00 +34°C° 0 mm 1 mps 747 mmHg 32%
    10:00 +36°C° 0 mm 2 mps 747 mmHg 30%
    11:00 +37°C° 0 mm 2 mps 747 mmHg 28%
    12:00 +38°C° 0 mm 2 mps 747 mmHg 26%
    13:00 +38°C° 0 mm 2 mps 747 mmHg 26%
    14:00 +39°C° 0 mm 3 mps 746 mmHg 25%
    15:00 +39°C° 0 mm 3 mps 746 mmHg 25%
    16:00 +38°C° 0 mm 3 mps 746 mmHg 27%
    17:00 +36°C° 0 mm 3 mps 746 mmHg 30%
    18:00 +35°C° 0 mm 3 mps 746 mmHg 32%
    19:00 +34°C° 0 mm 2 mps 746 mmHg 35%
    20:00 +32°C° 0 mm 2 mps 747 mmHg 38%
    21:00 +30°C° 0 mm 1 mps 747 mmHg 40%
    22:00 +30°C° 0 mm 1 mps 747 mmHg 40%
    23:00 +30°C° 0 mm 1 mps 747 mmHg 40%

    26 July, Thursday

    Time Temperature Precipitation Wind Pressure Humidity
    00:00 +29°C° 0 mm 1 mps 747 mmHg 40%
    01:00 +29°C° 0 mm 1 mps 746 mmHg 41%
    02:00 +28°C° 0 mm 1 mps 746 mmHg 42%
    03:00 +28°C° 0 mm 1 mps 746 mmHg 43%
    04:00 +28°C° 0 mm 1 mps 746 mmHg 43%
    05:00 +28°C° 0 mm 1 mps 746 mmHg 43%
    06:00 +29°C° 0 mm 1 mps 747 mmHg 43%
    07:00 +30°C° 0 mm 1 mps 747 mmHg 38%
    08:00 +32°C° 0 mm 2 mps 747 mmHg 33%
    09:00 +35°C° 0 mm 2 mps 747 mmHg 29%
    10:00 +36°C° 0 mm 2 mps 747 mmHg 27%
    11:00 +37°C° 0 mm 2 mps 747 mmHg 25%
    12:00 +38°C° 0 mm 3 mps 747 mmHg 23%
    13:00 +38°C° 0 mm 3 mps 747 mmHg 23%
    14:00 +38°C° 0 mm 3 mps 747 mmHg 23%
    15:00 +38°C° 0 mm 3 mps 746 mmHg 23%
    16:00 +37°C° 0 mm 3 mps 746 mmHg 26%
    17:00 +36°C° 0 mm 3 mps 746 mmHg 28%
    18:00 +35°C° 0 mm 2 mps 746 mmHg 30%
    19:00 +32°C° 0 mm 2 mps 747 mmHg 34%
    20:00 +31°C° 0 mm 2 mps 747 mmHg 37%
    21:00 +30°C° 0 mm 1 mps 747 mmHg 41%
    22:00 +29°C° 0 mm 1 mps 747 mmHg 40%
    23:00 +29°C° 0 mm 2 mps 747 mmHg 40%

    27 July, Friday

    Time Temperature Precipitation Wind Pressure Humidity
    00:00 +29°C° 0 mm 2 mps 746 mmHg 39%
    01:00 +28°C° 0 mm 2 mps 746 mmHg 38%
    02:00 +28°C° 0 mm 2 mps 746 mmHg 37%
    03:00 +28°C° 0 mm 1 mps 746 mmHg 35%
    04:00 +28°C° 0 mm 1 mps 746 mmHg 34%
    05:00 +29°C° 0 mm 1 mps 746 mmHg 32%
    06:00 +29°C° 0 mm 1 mps 746 mmHg 31%
    07:00 +32°C° 0 mm 2 mps 747 mmHg 26%
    08:00 +35°C° 0 mm 2 mps 747 mmHg 22%
    09:00 +37°C° 0 mm 2 mps 747 mmHg 17%
    10:00 +38°C° 0 mm 3 mps 747 mmHg 16%
    11:00 +40°C° 0 mm 4 mps 746 mmHg 15%
    12:00 +41°C° 0 mm 4 mps 746 mmHg 15%
    13:00 +41°C° 0 mm 4 mps 746 mmHg 16%
    14:00 +41°C° 0 mm 5 mps 746 mmHg 17%
    15:00 +41°C° 0 mm 5 mps 746 mmHg 18%
    16:00 +40°C° 0 mm 5 mps 746 mmHg 21%
    17:00 +39°C° 0 mm 5 mps 746 mmHg 24%
    18:00 +37°C° 0 mm 5 mps 745 mmHg 27%
    19:00 +35°C° 0 mm 4 mps 746 mmHg 30%
    20:00 +34°C° 0 mm 4 mps 746 mmHg 34%
    21:00 +31°C° 0 mm 3 mps 747 mmHg 38%
    22:00 +31°C° 0 mm 3 mps 746 mmHg 38%
    23:00 +31°C° 0 mm 3 mps 746 mmHg 37%

    28 July, Saturday

    Time Temperature Precipitation Wind Pressure Humidity
    00:00 +30°C° 0 mm 3 mps 746 mmHg 37%
    01:00 +30°C° 0 mm 3 mps 746 mmHg 37%
    02:00 +29°C° 0 mm 3 mps 746 mmHg 37%
    03:00 +29°C° 0 mm 3 mps 745 mmHg 37%
    04:00 +29°C° 0 mm 3 mps 746 mmHg 37%
    05:00 +30°C° 0 mm 3 mps 746 mmHg 36%
    06:00 +30°C° 0 mm 3 mps 746 mmHg 36%
    07:00 +33°C° 0 mm 3 mps 746 mmHg 32%
    08:00 +35°C° 0 mm 3 mps 747 mmHg 28%
    09:00 +37°C° 0 mm 4 mps 747 mmHg 24%
    10:00 +38°C° 0 mm 4 mps 747 mmHg 23%
    11:00 +40°C° 0 mm 5 mps 747 mmHg 23%
    12:00 +40°C° 0 mm 5 mps 747 mmHg 22%
    13:00 +40°C° 0 mm 5 mps 746 mmHg 23%
    14:00 +41°C° 0 mm 5 mps 746 mmHg 24%
    15:00 +41°C° 0 mm 6 mps 746 mmHg 24%
    16:00 +39°C° 0 mm 5 mps 746 mmHg 27%
    17:00 +37°C° 0 mm 5 mps 746 mmHg 30%
    18:00 +36°C° 0 mm 5 mps 746 mmHg 33%
    19:00 +34°C° 0 mm 4 mps 747 mmHg 38%
    20:00 +33°C° 0 mm 4 mps 747 mmHg 43%
    21:00 +30°C° 0 mm 3 mps 747 mmHg 48%
    22:00 +30°C° 0 mm 3 mps 747 mmHg 48%
    23:00 +29°C° 0 mm 3 mps 747 mmHg 47%
    Show more